CZ-2D R/B, 68141

Orbit data source: Space-Track

CZ-2D R/B, 68141 is space debris in LEO originally from a launch on Thu, 12 Mar 2026 UTC launched from the Xichang Space Center, China (XSC). Debris objects in space refer to the collection of defunct objects orbiting the Earth. Examples of debris include non-operational satellites, rocket bodies, and fragments generated from explosions, collisions, or faulty payload assembly.

Loading next visibility...
Identifier
68141, 2026-048C
Orbit
LEO
Country
Flag of CNCN / PRC
Related business
Manufacturer
BWYIC
Mission
Spacecraft
Bus & Motor
CZ-2 STAGE 2, Unknown motor
Mass
4,006 kg wet, 4,006 kg dry
Launch date (UTC)
2026-03-12 (2 months ago)
Launch vehicle
Unknown
Launch site
Xichang Space Center, China (XSC)
Object type
Payload
Rocket body
Debris
Shape & HBR
Unknown shape, 1.1 m
Radar Cross Section
RCS unknown

Expand to show TLE details & history
Last TLE update: 9 hours ago

TLE from 9 hours ago
0 CZ-2D R/B
1 68141U 26048C   26119.91868413  .00001530  00000-0  13754-3 0  9991
2 68141  35.1284 196.0245 0015200  46.8783 313.3194 14.95658251  7171
Epoch: 2026-04-29T22:02Z
TLE epoch observation values (Epoch: 2026-04-29T22:02:54.308Z)
Latitude
-0.00005°
Longitude
7.42539°
Altitude
572.018 km
Speed
7.581 km/s
True Right ascension
13h 04m 05s
True Declination
0° 00' 00"
Sunlit
Object was in full shadow at epoch
Visualization orbit readout
Latitude
Unknown
Longitude
Unknown
Altitude
Unknown
Speed
Unknown
Apparent Right ascension
Unknown
Apparent Declination
Unknown
Sunlit
N/A
Visualization observer readout
Local Sidereal Time
14:36:06
Azimuth
Unknown
Elevation
Unknown
Doppler factor
Unknown
Orbital elements
Apogee altitude
594.103 km
Perigee altitude
572.94 km
Semi-major axis
6,961.659 km
Eccentricity
0.00152
Inclination
35.1284°
RAAN
196.0245°
Arg. of periapsis
46.8783°
True anomaly
313.19251°
Mean anomaly
313.3194°
Eccentric anomaly
313.25597°
Mean motion
3.73658 °/min
Orbital period
96.34 mins
BSTAR
0.00013754
Loading maneuver chart data...
Computing Atmospheric mass density...
Loading historical data...
Loading historical data...
Loading historical data...
Loading historical data...
Loading historical data...
Loading historical data...
Loading historical data...
Other satellites on launch #48 in the year 2026 (2026-03-12 UTC)

Documentation

Showing up to 5 results
|